N1JFY Weather Reports


Display with metric or nautical units.
time (UTC)temp
F
wind
direction
speed
MPH
gust
MPH
rain 1hr
in
rain 24hr
in
rain mn
in
humidity
%
barometer
mb
20260831053032 53 0.0 0.0 0.00 0.00 0.00 81 1013.9
20260831051535 53 0.0 0.0 0.00 0.00 0.00 82 1013.8
20260831050030 54 0.0 0.0 0.00 0.00 0.00 82 1013.8
20260831044529 54 0.0 0.0 0.00 0.00 0.00 83 1013.7
20260831043026 54 0.0 0.0 0.00 0.00 0.00 83 1013.7
20260831041525 55 0.0 0.0 0.00 0.00 0.00 83 1013.6
20260831040026 55 0.0 0.0 0.00 0.00 0.00 83 1013.4
20260831034521 55 0.0 0.0 0.00 0.00 0.00 82 1013.2
20260831033023 56 0.0 0.0 0.00 0.00 0.00 81 1013.1
20260831031519 56 0.0 0.0 0.00 0.00 0.00 81 1013.1
20260831030019 56 0.0 0.0 0.00 0.00 0.00 81 1013.0
20260831024521 57 0.0 0.0 0.00 0.00 0.00 81 1012.9
20260831023018 57 0.0 0.0 0.00 0.00 0.00 80 1012.9
20260831021526 58 0.0 0.0 0.00 0.00 0.00 79 1012.9
20260831020022 58 0.0 0.0 0.00 0.00 0.00 79 1012.7
20260831014526 58 0.0 0.0 0.00 0.00 0.00 80 1012.2
20260831013017 58 0.0 0.0 0.00 0.00 0.00 80 1012.1
20260831011524 58 0.0 0.0 0.00 0.00 0.00 79 1012.0
20260831010016 59 0.0 0.0 0.00 0.00 0.00 79 1012.0
20260831004515 59 0.0 0.0 0.00 0.00 0.00 78 1012.0
20260831003014 60 0.0 0.0 0.00 0.00 0.00 76 1012.1
20260831001514 60 0.0 0.0 0.00 0.00 0.00 76 1011.9
20260831000014 60 0.0 0.0 0.00 0.00 0.00 75 1011.7
20260830234513 60 0.0 0.0 0.00 0.00 0.00 73 1011.2
20260830233013 61 13 0.0 0.0 0.00 0.00 0.00 73 1011.2
20260830231513 61 19 0.0 0.0 0.00 0.00 0.00 71 1011.5
20260830230011 62 345 0.0 0.0 0.00 0.00 0.00 70 1011.5
20260830224511 63 334 0.0 0.0 0.00 0.00 0.00 69 1011.5
20260830223011 65 5 0.0 0.0 0.00 0.00 0.00 66 1011.0
20260830221510 69 284 0.0 0.0 0.00 0.00 0.00 52 1010.6
20260830220007 70 278 0.0 0.0 0.00 0.00 0.00 50 1010.2
20260830214502 70 278 0.0 0.0 0.00 0.00 0.00 50 1010.2
20260830213058 70 278 0.0 0.0 0.00 0.00 0.00 50 1010.2
20260830211559 71 273 0.0 0.0 0.00 0.00 0.00 49 1010.1
20260830210001 71 267 0.0 0.0 0.00 0.00 0.00 49 1010.0
20260830203042 72 262 0.0 0.0 0.00 0.00 0.00 46 1010.0
20260830201540 72 360 0.0 0.0 0.00 0.00 0.00 46 1009.9
20260830200045 73 360 0.0 0.0 0.00 0.00 0.00 47 1009.9
20260830194537 72 266 0.0 0.0 0.00 0.00 0.00 49 1010.1
20260830193035 74 242 0.0 0.0 0.00 0.00 0.00 44 1010.2
20260830191534 74 238 0.0 0.0 0.00 0.00 0.00 46 1010.4
20260830190043 75 246 0.0 0.0 0.00 0.00 0.00 45 1010.5
20260830184530 74 360 0.0 0.0 0.00 0.00 0.00 45 1010.8
20260830183028 74 360 0.0 0.0 0.00 0.00 0.00 45 1011.1
20260830181525 73 256 0.0 0.0 0.00 0.00 0.00 47 1011.6
20260830180028 73 286 0.0 0.0 0.00 0.00 0.00 49 1011.7
20260830174522 74 360 0.0 0.0 0.00 0.00 0.00 48 1011.5
20260830173021 74 278 0.0 0.0 0.00 0.00 0.00 46 1011.6
20260830171521 73 360 0.0 0.0 0.00 0.00 0.00 44 1011.8
20260830170020 74 360 0.0 0.0 0.00 0.00 0.00 43 1011.8
20260830164516 73 236 0.0 0.0 0.00 0.00 0.00 46 1012.1
20260830163013 73 360 0.0 0.0 0.00 0.00 0.00 46 1012.4
20260830161510 72 231 0.0 0.0 0.00 0.00 0.00 49 1012.4
20260830160008 72 360 0.0 0.0 0.00 0.00 0.00 58 1012.5
20260830154504 71 279 0.0 0.0 0.00 0.00 0.00 60 1012.7
20260830153001 71 287 0.0 0.0 0.00 0.00 0.00 62 1012.8
20260830151559 70 270 0.0 0.0 0.00 0.00 0.00 64 1013.1
20260830150105 70 271 0.0 0.0 0.00 0.00 0.00 64 1013.2
20260830144554 70 230 0.0 0.0 0.00 0.00 0.00 65 1013.4
20260830143105 69 193 0.0 0.0 0.00 0.00 0.00 66 1013.4
20260830141554 69 260 0.0 0.0 0.00 0.00 0.00 68 1013.5
20260830140050 69 288 0.0 0.0 0.00 0.00 0.00 68 1013.6
20260830134547 68 321 0.0 0.0 0.00 0.00 0.00 68 1013.6
20260830133044 67 271 0.0 0.0 0.00 0.00 0.00 69 1013.6
20260830131541 66 271 0.0 0.0 0.00 0.00 0.00 71 1013.7
20260830130043 65 244 0.0 0.0 0.00 0.00 0.00 70 1013.8
20260830124536 64 226 0.0 0.0 0.00 0.00 0.00 71 1014.0
20260830123032 63 236 0.0 0.0 0.00 0.00 0.00 73 1014.1
20260830121536 62 227 0.0 0.0 0.00 0.00 0.00 72 1014.2
20260830120027 61 263 0.0 0.0 0.00 0.00 0.00 75 1014.4
20260830114521 59 215 0.0 0.0 0.00 0.00 0.00 76 1014.5
20260830113018 58 228 0.0 0.0 0.00 0.00 0.00 77 1014.6
20260830111516 58 232 0.0 0.0 0.00 0.00 0.00 77 1014.5
20260830110014 57 211 0.0 0.0 0.00 0.00 0.00 77 1014.6
20260830104542 57 220 0.0 0.0 0.00 0.00 0.00 78 1014.5
20260830103015 57 221 0.0 0.0 0.00 0.00 0.00 77 1014.7
20260830101513 57 221 0.0 0.0 0.00 0.00 0.00 77 1014.7
20260830100011 56 209 0.0 0.0 0.00 0.00 0.00 77 1014.7
20260830094510 56 237 0.0 0.0 0.00 0.00 0.00 78 1014.6
20260830093008 56 217 0.0 0.0 0.00 0.00 0.00 79 1014.5
20260830091508 55 223 0.0 0.0 0.00 0.00 0.00 81 1014.6
20260830090006 54 226 0.0 0.0 0.00 0.00 0.00 81 1014.7
20260830084505 54 207 0.0 0.0 0.00 0.00 0.00 81 1014.6
20260830083015 55 209 0.0 0.0 0.00 0.00 0.00 80 1014.7
20260830081504 54 238 0.0 0.0 0.00 0.00 0.00 81 1014.7
20260830080003 54 217 0.0 0.0 0.00 0.00 0.00 81 1014.9
20260830074501 54 203 0.0 0.0 0.00 0.00 0.00 80 1014.9
20260830073116 54 193 0.0 0.0 0.00 0.00 0.00 80 1015.0
20260830071559 54 207 0.0 0.0 0.00 0.00 0.00 80 1015.2
20260830070058 54 205 0.0 0.0 0.00 0.00 0.00 79 1015.3
20260830064556 55 232 0.0 0.0 0.00 0.00 0.00 77 1015.3
20260830063109 56 217 0.0 0.0 0.00 0.00 0.00 75 1015.5
20260830061555 55 217 0.0 0.0 0.00 0.00 0.00 76 1015.6
20260830060054 55 209 0.0 0.0 0.00 0.00 0.00 77 1016.0
20260830054550 55 183 0.0 0.0 0.00 0.00 0.00 77 1016.1